Погода в Старцеве

Россия / Орловская область     53°00′11″N   36°09′26″E
темп.,
°C
ветер,
м/с
пор.,
м/с
влажн.,
%
обл.,
%
осадки,
мм/ч
давл.,
гПа
погр.,
м
12 мая, ср
ср1200:00+7вюв39870 0.0 1025170
03:00+5в34920 0.0 102563
06:00+6всв38905 0.0 1025188
09:00+11в467013 0.0 1024682
12:00+14всв4457100 0.0 10211467
15:00+11вюв3471100 0.6 1020559
18:00+9св2293100 2.1 1017171
21:00+7вюв38956 2.1 1017167
13 мая, чт
чт1300:00+6в410955 0.0 1016206
03:00+7в51294100 0.0 1016283
06:00+8вюв5139439 0.1 1015457
09:00+11юв71083100 0.1 1015934
12:00+12юв7108399 0.8 10151171
15:00+14ююв68734 1.9 10141204
18:00+14ю5872100 0.1 1014862
21:00+10ююв35905 0.1 101567
14 мая, пт
пт1400:00+9юв3593100 0.0 101579
03:00+9юв3694100 0.0 1015108
06:00+10вюв3693100 0.0 1015171
09:00+15юв6986100 0.6 1014514
12:00+20юв6974100 0.3 10121157
15:00+21ююв71173100 3.2 10111293
18:00+19ю71279100 2.9 1010365
21:00+16ююв41090100 3.4 1010183
15 мая, сб
сб1500:00+15ююв41095100 1.8 1010200
03:00+14вюв51194100 3.5 1010216
06:00+14ююв41095100 0.2 1009272
09:00+17ююв688876 1.1 1009574
12:00+21ююз68644 0.3 10091213
15:00+20юз79690 0.6 10091384
18:00+18юз6977100 0.6 1010846
21:00+14ююз359245 0.6 101190
16 мая, вс
вс1600:00+12ююз349440 0.0 101267
03:00+11юз339497 0.0 101339
06:00+12юз239222 0.0 101382
09:00+16юз23760 0.0 1014486
12:00+20ююз346322 0.0 10141299
15:00+21юз3457100 0.1 10131778
18:00+21ю126778 0.0 1013979
21:00+16св127569 0.0 101311